Location: ??
(35.7045°N, 139.6695°E)
Time: 10:39:32
(UTC+00:00)

Daily predictions for brighter satellites

Satellite Brightness Start Highest point End
(mag) Time Altitude Azimuth Time Altitude Azimuth Time Altitude Azimuth
ATLAS 3B R/B 4.2 18:37:44 10° SSE 18:43:12 30° ESE 18:48:50 10° NE
CZ-2C R/B 3.9 19:21:34 10° SE 19:26:38 40° ENE 19:31:36 10° N
Cosmos 2279 Rocket 4.1 19:23:36 10° N 19:29:47 73° E 19:35:59 10° SSE
Cosmos 1777 Rocket 4.4 19:25:52 10° S 19:30:59 63° ESE 19:36:10 10° NNE
Cosmos 1328 Rocket 3.7 19:33:19 50° NNE 19:34:17 68° E 19:38:34 10° SSE
SL-8 R/B 3.8 19:48:11 50° NNW 19:49:20 71° NE 19:54:05 10° ESE
Lacrosse 5 4.1 19:45:42 10° S 19:49:49 25° ESE 19:53:58 10° ENE
COSMO-SKYMED 1 3.0 19:45:52 10° SSE 19:50:08 60° ENE 19:53:55 13° N
Meteor 1-10 Rocket 4.2 19:45:27 10° N 19:51:01 79° E 19:56:35 10° S
Cosmos 1634 Rocket 4.2 19:50:59 38° WNW 19:52:22 43° W 19:58:09 10° SSW
Meteor 2-8 Rocket 4.4 19:47:02 10° N 19:53:12 89° E 19:59:17 10° S
Envisat 2.8 19:49:10 10° N 19:54:15 75° WNW 19:59:18 10° SSW
Cosmos 1408 Rocket 3.3 19:51:46 10° S 19:56:03 80° W 20:00:22 10° N
Cosmos 1340 Rocket 3.3 19:54:47 10° S 19:58:40 60° E 20:02:36 10° NNE
MOS 1-B Rocket 3.9 19:58:54 10° S 20:05:07 61° WSW 20:10:39 11° NNW
SJ-12 4.1 20:03:05 10° N 20:07:04 46° WNW 20:11:01 10° SSW
H-2A R/B 3.5 20:09:07 32° WSW 20:09:07 32° WSW 20:11:34 10° SW
Cosmos 1743 Rocket 3.8 20:03:39 10° S 20:07:59 70° E 20:12:20 10° NNE
CZ-4B R/B 4.5 20:07:03 10° NNE 20:10:20 33° E 20:13:42 10° SSE
SJ 16-02 1.4 20:06:45 10° SSW 20:11:00 51° WNW 20:15:17 10° N
FALCON 9 R/B 4.2 19:55:04 23° W 20:12:34 75° SSW 20:19:44 10° ESE
ATLAS 5 CENTAUR R/B 2.5 20:13:33 24° NNW 20:13:33 24° NNW 20:16:11 10° N
SL-19 R/B 4.3 20:08:21 10° S 20:13:48 56° WSW 20:19:18 10° NNW
SKYMED 3 4.5 20:09:56 10° S 20:14:14 69° WSW 20:18:20 11° NNW
NOAA 11 4.4 20:09:18 10° NNE 20:14:47 74° ESE 20:20:16 10° S
SL-27 R/B 2.3 20:15:18 29° NNW 20:16:57 69° WSW 20:20:24 10° S
Meteor 1-31 Rocket 3.1 20:17:18 10° N 20:21:01 43° WNW 20:24:44 10° SW
Cosmos 1515 Rocket 3.5 20:17:11 10° NNW 20:21:28 64° W 20:25:44 10° S
OAO 2 Rocket 3.8 20:19:42 15° WSW 20:24:02 61° SSE 20:29:05 10° E
SL-4 R/B 1.9 20:26:19 26° W 20:27:53 45° NW 20:31:23 10° NE
Cosmos 2228 Rocket 4.1 20:24:26 10° N 20:28:51 49° E 20:33:15 10° SSE
ATLAS 3B R/B 2.9 20:27:24 10° SW 20:33:34 45° NW 20:40:01 10° NNE
Sich 1 3.5 20:30:11 10° S 20:34:24 64° E 20:38:38 10° NNE
Cosmos 1500 Rocket 3.7 20:30:24 10° SSW 20:34:43 51° W 20:39:06 10° N
Cosmos 1939 Rocket 3.7 20:32:11 10° NNE 20:35:59 52° E 20:39:44 10° S
SKYMED 2 4.2 20:34:16 10° SSW 20:38:14 35° W 20:42:13 10° NNW
Cosmos 2026 Rocket 4.2 20:32:20 10° S 20:38:40 78° E 20:44:57 10° N
DELTA 2 R/B (1) 3.7 20:35:59 17° WNW 20:40:12 66° N 20:45:43 10° E
Cosmos 2195 Rocket 4.4 20:37:17 10° S 20:43:24 81° W 20:49:32 10° N
Cosmos 1602 3.6 20:41:00 10° SSW 20:44:45 62° W 20:48:32 10° N
BREEZE-M DEB (TANK) 4.4 20:34:21 12° NW 20:46:23 39° WSW 20:50:54 10° S
H-2A R/B 2.9 20:42:24 10° SSE 20:46:32 51° ENE 20:50:47 10° N
Cosmos 1805 Rocket 3.5 20:43:01 10° SSW 20:47:21 66° W 20:51:42 10° N
Meteor PRIRODA 3.8 20:49:29 10° N 20:52:59 48° WNW 20:56:30 10° SSW
Cosmos 1607 4.4 20:47:46 10° NNW 20:53:57 62° ENE 20:59:59 10° SE
Meteor 1-27 Rocket 4.1 20:48:33 10° NNW 20:53:59 46° W 20:59:29 10° SSW
Cosmos 1500 3.1 20:50:20 10° S 20:54:08 79° W 20:57:56 10° N
EO 1 Delta rocket 4.4 20:50:50 10° NNE 20:56:28 71° E 21:01:11 10° S
NOAA 12 4.1 20:55:04 10° N 21:00:16 67° WNW 21:05:27 10° SSW
Cosmos 1538 Rocket 4.0 20:57:20 10° NNW 21:02:29 63° WSW 21:07:34 10° S
USA 215 3.9 20:56:42 10° ESE 21:03:00 53° NE 21:09:19 10° NW
Cosmos 2297 Rocket 3.2 20:58:32 10° N 21:03:58 46° ENE 21:09:23 10° SE
ADEOS 4.2 21:00:58 10° N 21:05:34 32° WNW 21:10:08 10° SW
COSMOS 2487 2.9 21:03:12 10° NNW 21:06:21 38° WSW 21:09:28 10° S
CZ-2C R/B 3.8 21:02:47 10° SW 21:06:59 22° W 21:11:07 10° NW
ASTRO E2 4.2 21:05:38 10° SW 21:09:16 34° SSE 21:12:53 10° ESE
Cosmos 1515 4.3 21:07:22 10° NNW 21:10:53 36° W 21:14:24 10° SSW
AQUARIUS 4.2 21:07:14 10° N 21:11:45 85° WNW 21:16:14 10° SSW
PSLV R/B 4.2 21:10:37 10° NNE 21:14:38 75° ESE 21:18:41 10° S
Meteor 1-14 Rocket 4.4 21:10:18 10° S 21:15:49 80° E 21:21:27 10° N
